Find Starlink 30378

NORAD ID: 57787 Int'l Des: 2023-134 Owner: SPXS Country: US Constellation: starlink operational
LEOCIRCULAR

当前视图

正在加载3D地球...

About Starlink 30378

Starlink 30378 (NORAD 57787) is a starlink constellation satellite (v2 mini) launched Sep 4, 2023 by SPXS of US. It operates in LEO, CIRCULAR orbit with a mass of 730.00 kg.

即将过境

Passes for default location (London). Set your location on the main map for personalized predictions.

高度历史

Loading altitude history...

两行轨道根数

1 57787U 23134S 26236.52856853 .00001620 00000-0 68393-4 0 9990
2 57787 43.0021 326.7843 0001490 272.2841 87.7840 15.27580041165176
Epoch: Aug 24, 2026 • Age: 8 hours

当前状态

高度 494.5 km
远地点 / 近地点 N/A
速度 7.62 km/s
星下点 -40.96°S, 19.06°W
发射日期 Sep 4, 2023
运行时间 2.9 years
类型 internet

技术详情

分类 Payload
质量 730.00 kg
干质量 700.00 kg
总质量 730.00 kg
长度 0.30 m
直径 4.10 m
跨度 29.00 m
形状 Box + pan
制造商 SPXS
平台类型 Starlink V2M
阶段状态 In Orbit
所有者/国家 SPXS/US

Most Searched